Flag for Canada Weather past 2 weeks in Port Coquitlam, British Columbia, Canada

Now
58 °F

Cool.


Feels Like: 57 °F
Forecast: 52 / 67 °F
Wind: 6 mph from South

Location: P. Meadows Coastal Station

Current Time: Sep 2, 2014 at 5:25:06 PM

Latest Report: Sep 2, 2014 at 4:00 PM


Visibility: N/A

Pressure: 29.81 "Hg

Humidity: 93%

Dew point: 56 °F

Location of Port CoquitlamLocation

Historic Weather in Port Coquitlam — Graph

°F

Port Coquitlam temperature yesterday

Maximum temperature yesterday: 70 °F (at 3:00 PM)
Minimum temperature yesterday: 52 °F (at 6:00 AM)
Average temperature yesterday: 62 °F

Past Weeks' High & Low Weather Summary

 TemperatureHumidityPressure
High84 °F (Aug 26, 5:00 PM)98% (Aug 22, 3:00 AM)30.15 "Hg (Aug 22, 3:00 AM)
Low52 °F (Sep 1, 6:00 AM)32% (Aug 23, 6:00 PM)29.75 "Hg (Aug 19, 7:00 PM)
Average66 °F74%29.97 "Hg
* Reported Aug 18 4:00 PM — Sep 2 4:00 PM, Port Coquitlam, Weather by CustomWeather, © 2014

Note: Actual official high and low records may vary slightly from our data, if they occured in-between our weather recording intervals... More about our weather records

Advertising

Port Coquitlam weather history for previous 24 hours

 ConditionsComfort  
Time TempWeatherWind HumidityBarometerVisibility
4:00 PM
Sep 2
58 °FCool.6 mph93%29.81 "HgN/A
3:00 PM58 °FCool.3 mph93%29.83 "HgN/A
2:00 PM58 °FCool.5 mph91%29.84 "HgN/A
1:00 PM59 °FCool.2 mph92%29.84 "HgN/A
12:00 PM59 °FCool.3 mph93%29.85 "HgN/A
11:00 AM60 °FCool.3 mph92%29.85 "HgN/A
10:00 AM60 °FCool.3 mph89%29.87 "HgN/A
9:00 AM59 °FCool.3 mph91%29.88 "HgN/A
8:00 AM59 °FCool.5 mph91%29.90 "HgN/A
7:00 AM59 °FCool.2 mph91%29.91 "HgN/A
6:00 AM59 °FCool.1 mph93%29.91 "HgN/A
5:00 AM59 °FCool.1 mph91%29.93 "HgN/A
4:00 AM60 °FCool.1 mph93%29.93 "HgN/A
3:00 AM60 °FCool.No wind93%29.94 "HgN/A
2:00 AM60 °FCool.No wind92%29.95 "HgN/A
1:00 AM60 °FCool.No wind86%29.96 "HgN/A
12:00 AM60 °FCool.1 mph84%29.97 "HgN/A
11:00 PM
Sep 1
61 °FCool.3 mph80%29.98 "HgN/A
10:00 PM63 °FMild.3 mph77%29.99 "HgN/A
9:00 PM64 °FMild.1 mph68%30.00 "HgN/A
8:00 PM66 °FMild.1 mph64%30.00 "HgN/A
7:00 PM67 °FMild.2 mph62%30.00 "HgN/A
6:00 PM68 °FMild.3 mph54%30.02 "HgN/A
5:00 PM69 °FMild.6 mph56%30.03 "HgN/A
Weather by CustomWeather, © 2014

See weather overviewHow to use our weather pages